This is the latest recevied weather packets stored in our database for station/object K3RUP-1. If no packets are shown the sender has not sent any weather packets the latest 1 day(s).
| Time | Temp. | Humidity | Pressure | Rain* | Wind** | Luminosity | Snow |
|---|---|---|---|---|---|---|---|
| 1778016632 | 27.22° C | 44% | 1008.5 hPa | 0 mm | 0 m/s | 89 W/m² | - |
| 1778016329 | 27.22° C | 43% | 1008.3 hPa | 0 mm | 0 m/s | 133 W/m² | - |
| 1778016026 | 27.22° C | 45% | 1008.4 hPa | 0 mm | 0 m/s | 273 W/m² | - |
| 1778015723 | 26.67° C | 43% | 1008.4 hPa | 0 mm | 0 m/s | 154 W/m² | - |
| 1778015420 | 26.67° C | 42% | 1008.3 hPa | 0 mm | 0.45 m/s, 343° | 106 W/m² | - |
| 1778015116 | 27.78° C | 44% | 1008.4 hPa | 0 mm | 0 m/s | 186 W/m² | - |
| 1778014814 | 28.33° C | 43% | 1008.2 hPa | 0 mm | 0 m/s | 248 W/m² | - |
| 1778014512 | 28.33° C | 43% | 1008.3 hPa | 0 mm | 0 m/s | 360 W/m² | - |
| 1778014209 | 27.78° C | 36% | 1008.3 hPa | 0 mm | 0 m/s | 364 W/m² | - |
| 1778013906 | 27.22° C | 46% | 1008.3 hPa | 0 mm | 0 m/s | 272 W/m² | - |
| 1778013603 | 27.22° C | 46% | 1008.2 hPa | 0 mm | 0.45 m/s, 233° | 453 W/m² | - |
| 1778013299 | 26.67° C | 47% | 1008.1 hPa | 0 mm | 0 m/s | 443 W/m² | - |
| 1778012996 | 27.78° C | 46% | 1008.4 hPa | 0 mm | 0 m/s | 450 W/m² | - |
| 1778012693 | 27.78° C | 45% | 1008.5 hPa | 0 mm | 0 m/s | 435 W/m² | - |
| 1778012389 | 27.22° C | 46% | 1008.4 hPa | 0 mm | 0 m/s | 506 W/m² | - |
| 1778012086 | 26.67° C | 48% | 1008.5 hPa | 0 mm | 0 m/s | 455 W/m² | - |
| 1778011784 | 27.22° C | 47% | 1008.3 hPa | 0 mm | 0 m/s | 499 W/m² | - |
| 1778011481 | 27.78° C | 46% | 1008.6 hPa | 0 mm | 0 m/s | 495 W/m² | - |
| 1778011177 | 27.78° C | 47% | 1008.6 hPa | 0 mm | 0 m/s | 518 W/m² | - |
| 1778010874 | 27.22° C | 46% | 1008.7 hPa | 0 mm | 0 m/s | 458 W/m² | - |
| 1778010571 | 27.22° C | 47% | 1008.6 hPa | 0 mm | 0 m/s | 527 W/m² | - |
| 1778010269 | 27.78° C | 47% | 1008.7 hPa | 0 mm | 0 m/s | 578 W/m² | - |
| 1778009968 | 27.78° C | 47% | 1009.1 hPa | 0 mm | 0 m/s | 565 W/m² | - |
| 1778009666 | 27.22° C | 46% | 1009 hPa | 0 mm | 0 m/s | 504 W/m² | - |
| 1778009364 | 27.22° C | 47% | 1008.9 hPa | 0 mm | 0 m/s | 569 W/m² | - |
* Rain latest hour (hover to see other rain measurements)
** Current wind speed in m/s (hover to see current wind gust speed)